KD5NDU-15 Weather Reports


time (UTC)temp
C
wind
direction
speed
KPH
gust
KPH
rain 1hr
cm
rain 24hr
cm
rain mn
cm
humidity
%
barometer
mb
20260506185716 16 331 1.6 3.2 0.00 0.00 0.00 94 1010.7
20260506185152 16 5 1.6 3.2 0.00 0.00 0.00 94 1010.6
20260506184648 16 6 0.0 3.2 0.00 0.00 0.00 95 1010.6
20260506184151 16 18 1.6 1.6 0.00 0.00 0.00 96 1010.3
20260506183715 16 18 1.6 3.2 0.00 0.00 0.00 95 1010.3
20260506183148 16 20 1.6 4.8 0.00 0.00 0.00 95 1010.3
20260506182648 16 6 1.6 3.2 0.00 0.00 0.00 95 1010.6
20260506182148 16 16 1.6 4.8 0.00 0.00 0.00 96 1010.6
20260506181648 16 4 1.6 3.2 0.00 0.00 0.00 95 1010.6
20260506181148 16 359 1.6 4.8 0.00 0.00 0.00 95 1010.8
20260506180650 16 11 1.6 4.8 0.00 0.00 0.00 95 1010.7
20260506180148 16 295 1.6 4.8 0.00 0.00 0.00 95 1010.6
20260506175648 16 259 1.6 4.8 0.00 0.00 0.00 95 1010.6
20260506175150 16 1 1.6 3.2 0.00 0.00 0.00 95 1010.4
20260506174648 16 319 1.6 1.6 0.00 0.00 0.00 97 1010.6
20260506174148 16 318 1.6 3.2 0.00 0.00 0.00 96 1010.5
20260506173652 16 20 1.6 4.8 0.00 0.00 0.00 96 1010.7
20260506173148 16 359 1.6 3.2 0.00 0.00 0.00 96 1010.8
20260506172648 16 12 1.6 4.8 0.00 0.00 0.00 96 1010.8
20260506172148 16 20 1.6 3.2 0.00 0.00 0.00 96 1010.8
20260506171652 16 15 1.6 3.2 0.00 0.00 0.00 96 1010.9
20260506171152 16 28 1.6 4.8 0.00 0.00 0.00 96 1010.7
20260506170648 16 22 1.6 4.8 0.00 0.00 0.00 96 1010.6
20260506170148 16 359 1.6 3.2 0.00 0.00 0.00 96 1010.5
20260506165648 16 46 1.6 4.8 0.00 0.00 0.00 96 1010.5
20260506165148 16 1 3.2 4.8 0.00 0.00 0.00 96 1010.5
20260506164648 16 1 3.2 4.8 0.00 0.00 0.00 95 1010.5
20260506164214 17 4 1.6 4.8 0.00 0.00 0.00 95 1010.4
20260506163650 17 1 1.6 3.2 0.00 0.00 0.00 96 1010.3
20260506163148 17 1 1.6 3.2 0.00 0.00 0.00 96 1010.3
20260506162648 17 11 1.6 3.2 0.00 0.00 0.00 97 1010.4
20260506162148 18 12 1.6 3.2 0.00 0.00 0.00 97 1010.1
20260506161648 18 13 1.6 3.2 0.00 0.00 0.00 97 1010.0
20260506161157 18 15 1.6 3.2 0.00 0.00 0.00 97 1009.9
20260506160648 18 15 1.6 3.2 0.00 0.00 0.00 97 1009.9
20260506160148 18 13 1.6 3.2 0.00 0.00 0.00 97 1009.9
20260506155652 18 15 1.6 6.4 0.00 0.00 0.00 97 1009.7
20260506155150 18 10 1.6 3.2 0.00 0.00 0.00 97 1009.8
20260506154648 18 3 1.6 3.2 0.00 0.00 0.00 97 1009.6
20260506154148 18 37 1.6 4.8 0.00 0.00 0.00 97 1009.6
20260506153650 18 20 1.6 3.2 0.00 0.00 0.00 97 1009.6
20260506153148 19 5 0.0 4.8 0.00 0.00 0.00 98 1009.6
20260506152648 19 5 0.0 4.8 0.00 0.00 0.00 98 1009.6
20260506152148 19 256 0.0 1.6 0.00 0.00 0.00 98 1009.5
20260506151648 19 165 0.0 1.6 0.00 0.00 0.00 98 1009.6
20260506151148 19 165 410.4 410.4 0.00 0.00 0.00 98 1009.2
20260506150648 -17 767 410.4 410.4 0.00 0.00 0.00
20260506150148 -17 767 410.4 410.4 0.00 0.00 0.00
20260506123957 -17 767 410.4 410.4 0.00 0.00 0.00
20260506123252 -17 767 410.4 410.4 0.00 0.00 0.00
20260506031925 21 179 1.6 3.2 0.00 0.00 0.00 89 1006.9
20260506031417 21 205 1.6 4.8 0.00 0.00 0.00 89 1006.9
20260506030917 21 213 1.6 3.2 0.00 0.00 0.00 89 1006.9
20260506030417 21 233 1.6 4.8 0.00 0.00 0.00 89 1007.0
20260506025917 21 86 3.2 6.4 0.00 0.00 0.00 89 1006.9
20260506025417 21 256 1.6 6.4 0.00 0.00 0.00 89 1006.8
20260506024917 21 238 1.6 3.2 0.00 0.00 0.00 88 1006.7
20260506024417 21 161 1.6 6.4 0.00 0.00 0.00 88 1006.7
20260506023917 21 272 1.6 3.2 0.00 0.00 0.00 88 1006.8
20260506023417 21 177 1.6 4.8 0.00 0.00 0.00 88 1006.9
20260506022945 21 198 1.6 8.0 0.00 0.00 0.00 88 1006.8
20260506022418 21 164 1.6 4.8 0.00 0.00 0.00 88 1006.7
20260506021917 21 180 3.2 8.0 0.00 0.00 0.00 88 1006.7
20260506021417 21 211 1.6 8.0 0.00 0.00 0.00 88 1006.6
20260506020917 21 144 1.6 6.4 0.00 0.00 0.00 88 1006.6
20260506020417 21 169 3.2 6.4 0.00 0.00 0.00 88 1006.5
20260506015917 21 172 3.2 9.7 0.00 0.00 0.00 88 1006.3
20260506015417 21 179 3.2 11.3 0.00 0.00 0.00 88 1006.3
20260506014946 21 169 3.2 9.7 0.00 0.00 0.00 88 1006.3
20260506014417 21 193 3.2 11.3 0.00 0.00 0.00 88 1006.2
20260506013917 21 225 3.2 6.4 0.00 0.00 0.00 88 1006.4
20260506013417 21 238 4.8 11.3 0.00 0.00 0.00 88 1006.1
20260506012917 21 165 4.8 11.3 0.00 0.00 0.00 89 1005.9
20260506012417 21 183 4.8 9.7 0.00 0.00 0.00 89 1006.1
20260506011918 21 236 3.2 9.7 0.00 0.00 0.00 89 1006.2
20260506011417 21 140 1.6 6.4 0.00 0.00 0.00 89 1006.3
20260506010925 21 193 3.2 8.0 0.00 0.00 0.00 89 1005.9
20260506010417 21 147 3.2 9.7 0.00 0.00 0.00 89 1006.1
20260506005917 21 168 3.2 9.7 0.00 0.00 0.00 89 1006.0
20260506005419 21 207 3.2 11.3 0.00 0.00 0.00 89 1006.1
20260506004921 21 148 3.2 8.0 0.00 0.00 0.00 89 1005.9
20260506004419 21 168 3.2 9.7 0.00 0.00 0.00 89 1006.1
20260506003917 21 179 4.8 8.0 0.00 0.00 0.00 90 1006.1
20260506003417 21 188 4.8 11.3 0.00 0.00 0.00 89 1005.9
20260506002917 21 165 4.8 11.3 0.00 0.00 0.00 90 1006.0
20260506002417 21 126 3.2 9.7 0.00 0.00 0.00 90 1006.0
20260506001917 21 152 3.2 6.4 0.00 0.00 0.00 90 1006.2
20260506001431 21 160 3.2 9.7 0.00 0.00 0.00 90 1006.0
20260506000917 21 174 4.8 8.0 0.00 0.00 0.00 90 1006.2
20260506000423 21 188 4.8 11.3 0.00 0.00 0.00 90 1006.0
20260505235917 21 177 4.8 11.3 0.00 0.00 0.00 90 1006.1
20260505235417 21 185 3.2 9.7 0.00 0.00 0.00 90 1006.2
20260505234917 21 157 3.2 9.7 0.00 0.00 0.00 90 1006.2
20260505234418 21 170 3.2 8.0 0.00 0.00 0.00 90 1006.4
20260505233917 21 210 3.2 11.3 0.00 0.00 0.00 90 1006.6
20260505233417 21 188 4.8 8.0 0.00 0.00 0.00 90 1006.7
20260505232917 21 135 4.8 9.7 0.00 0.00 0.00 90 1006.8
20260505232417 21 157 3.2 9.7 0.00 0.00 0.00 90 1007.0
20260505231917 21 168 3.2 12.9 0.00 0.00 0.00 89 1006.9
20260505231417 21 195 1.6 8.0 0.00 0.00 0.00 89 1006.9
20260505230919 21 186 3.2 6.4 0.00 0.00 0.00 89 1006.9
20260505230417 21 158 4.8 9.7 0.00 0.00 0.00 89 1007.0
20260505225919 21 166 3.2 8.0 0.00 0.00 0.00 89 1007.1
20260505225417 21 161 3.2 8.0 0.00 0.00 0.00 89 1006.9
20260505224917 21 173 3.2 6.4 0.00 0.00 0.00 89 1007.0
20260505224417 21 171 3.2 8.0 0.00 0.00 0.00 89 1007.0
20260505223917 21 162 3.2 8.0 0.00 0.00 0.00 89 1007.1
20260505223417 21 206 3.2 11.3 0.00 0.00 0.00 89 1007.1
20260505222917 21 152 3.2 11.3 0.00 0.00 0.00 89 1007.1
20260505222417 21 159 4.8 9.7 0.00 0.00 0.00 90 1007.1
20260505221917 20 209 3.2 12.9 0.00 0.00 0.00 90 1007.1
20260505221417 21 163 3.2 8.0 0.00 0.00 0.00 90 1007.2
20260505220917 21 167 3.2 9.7 0.00 0.00 0.00 89 1007.4
20260505220417 21 139 3.2 9.7 0.00 0.00 0.00 88 1007.2
20260505215917 21 188 6.4 410.4 0.00 0.00 0.00 88 1007.3
20260505215417 21 266 6.4 410.4 0.00 0.00 0.00 87 1007.3
20260505214917 -17 767 410.4 410.4 0.00 0.00 0.00 1007.6
20260505214417 -17 767 410.4 410.4 0.00 0.00 0.00 1007.6
20260505213917 -17 767 410.4 410.4 0.00 0.00 0.00 1007.5
20260505213418 -17 767 410.4 410.4 0.00 0.00 0.00 1007.6
20260505212917 -17 767 410.4 410.4 0.00 0.00 0.00 1007.5
20260505212417 -17 767 410.4 410.4 0.00 0.00 0.00 1007.6
20260505211917 -17 767 410.4 410.4 0.00 0.00 0.00 1007.6
20260505211421 -17 767 410.4 410.4 0.00 0.00 0.00 1007.7
20260505210917 -17 767 410.4 410.4 0.00 0.00 0.00 1007.6
20260505210420 -17 767 410.4 410.4 0.00 0.00 0.00 1007.7
20260505205917 -17 767 410.4 410.4 0.00 0.00 0.00 1007.6
20260505205425 -17 767 410.4 410.4 0.00 0.00 0.00 1007.7
20260505204917 -17 767 410.4 410.4 0.00 0.00 0.00 1007.7
20260505204417 -17 767 410.4 410.4 0.00 0.00 0.00 1007.7
20260505203917 -17 767 410.4 410.4 0.00 0.00 0.00 1007.8
20260505203417 -17 767 410.4 410.4 0.00 0.00 0.00 1007.7
20260505202917 -17 767 410.4 410.4 0.00 0.00 0.00 1007.8
20260505202420 -17 767 410.4 410.4 0.00 0.00 0.00 1007.8
20260505201917 -17 767 410.4 410.4 0.00 0.00 0.00 1007.9
20260505201417 -17 767 410.4 410.4 0.00 0.00 0.00 1008.0
20260505200918 -17 767 410.4 410.4 0.00 0.00 0.00 1008.0
20260505200418 -17 767 410.4 410.4 0.00 0.00 0.00 1007.9
20260505195918 -17 767 410.4 410.4 0.00 0.00 0.00 1008.0
20260505195418 -17 767 410.4 410.4 0.00 0.00 0.00 1008.0
20260505194918 -17 767 410.4 410.4 0.00 0.00 0.00 1007.9
20260505194418 -17 767 410.4 410.4 0.00 0.00 0.00 1007.9
20260505193920 -17 767 410.4 410.4 0.00 0.00 0.00 1007.9
20260505193420 -17 767 410.4 410.4 0.00 0.00 0.00 1008.1
20260505192918 -17 767 410.4 410.4 0.00 0.00 0.00 1008.1
20260505192418 -17 767 410.4 410.4 0.00 0.00 0.00 1008.3
20260505191918 -17 767 410.4 410.4 0.00 0.00 0.00 1008.2
20260505191420 -17 767 410.4 410.4 0.00 0.00 0.00 1008.1
20260505190918 -17 767 410.4 410.4 0.00 0.00 0.00 1008.1
20260505190418 -17 767 410.4 410.4 0.00 0.00 0.00 1008.3